GFSNW_700_rhum_210.txt.gz
RH
55 18 6 3 4 10 22 20 20 21 19 13 11 11 16 16 21 23 25 26 29 44 60 55 58 49 55 52 48 50 69 62 59 41 53 52 52 54 60 59 64 72 73 64
57 17 6 4 5 15 22 20 21 19 16 13 21 17 13 11 11 16 23 32 59 58 54 59 61 64 56 52 50 68 77 66 67 51 55 55 62 62 59 63 68 74 78 61
41 15 5 4 7 19 22 21 19 20 18 15 13 12 16 18 13 16 21 28 38 43 52 59 74 72 80 84 71 69 83 73 70 65 51 62 70 74 70 71 69 69 65 61
39 20 5 5 10 22 24 21 20 16 18 17 13 12 13 13 21 24 27 51 51 73 76 88 86 89 90 84 88 87 82 93 79 77 80 78 78 68 67 85 65 79 22 59
40 10 4 5 11 24 26 21 19 17 16 15 12 11 21 20 29 22 66 53 62 99 96 99 88 89 87 84 75 100 98 94 93 88 74 71 75 72 69 59 60 68 65 52
78 16 7 8 19 27 25 20 17 17 14 12 12 21 22 19 11 19 23 29 33 30 37 31 28 45 62 64 58 79 100 100 95 90 80 84 62 44 48 50 54 54 61 44
91 11 8 11 23 27 24 24 26 22 15 17 10 11 10 10 10 12 13 15 20 25 22 22 22 19 19 21 19 22 48 95 96 96 86 84 36 49 45 38 44 56 54 55
90 12 12 16 26 25 20 27 29 21 12 11 10 10 12 16 20 22 21 24 28 29 26 25 26 24 33 36 44 38 57 81 98 89 80 62 42 46 50 53 64 59 56 65
87 30 33 23 25 21 22 31 31 24 15 17 20 19 24 24 24 26 27 26 26 32 30 31 61 49 42 43 55 55 71 82 92 85 76 63 62 61 59 58 62 68 62 79
96 64 21 21 21 18 30 47 45 32 24 14 16 23 25 25 26 30 40 40 34 49 52 60 77 73 64 62 60 69 72 92 86 87 82 66 70 63 56 53 77 75 70 73
94 64 25 19 17 30 49 47 35 22 16 19 19 20 17 16 24 23 49 47 69 82 69 89 80 73 76 80 71 66 84 91 94 96 93 89 76 71 70 84 86 76 76 77
82 32 23 16 48 62 66 45 26 20 18 14 11 10 10 11 15 19 26 36 70 86 83 100 99 98 99 88 91 68 75 80 97 97 89 90 97 86 82 89 94 85 80 78
52 28 50 78 86 73 71 36 23 14 12 13 15 13 13 13 12 17 21 19 23 52 91 76 83 96 89 82 73 77 71 66 87 92 61 72 87 85 89 96 98 97 96 85
22 36 86 65 80 82 66 19 14 12 14 14 16 13 13 10 8 8 10 12 16 77 82 58 69 79 59 94 83 96 48 58 58 66 66 56 66 81 78 84 86 87 84 81
38 63 63 80 84 54 28 14 12 13 14 15 14 11 9 7 6 7 8 11 18 24 37 38 30 19 49 63 79 23 32 46 75 66 31 48 43 33 36 44 37 40 39 52
94 84 62 59 67 23 12 14 15 15 16 15 10 6 6 11 34 23 22 31 31 23 22 30 28 32 82 92 72 44 53 73 83 74 54 59 54 68 52 48 29 26 33 36
75 70 75 43 18 19 17 18 18 18 16 11 7 8 38 38 38 17 14 27 32 40 45 36 52 64 90 97 57 55 74 69 68 79 91 63 54 65 70 78 69 45 34 28
95 68 24 27 25 19 19 23 22 18 11 12 12 12 11 12 33 60 68 76 72 65 71 72 72 97 100 94 69 84 71 82 87 94 100 98 75 68 71 70 75 82 72 64
42 29 34 27 22 24 26 22 15 11 20 27 19 16 26 69 69 66 71 80 89 87 87 80 92 100 100 94 75 82 85 82 73 72 74 79 81 71 72 74 76 82 73 68
44 37 29 26 27 27 22 14 10 12 34 53 46 80 82 68 64 68 76 100 100 100 94 100 92 82 95 100 100 100 96 92 86 82 74 73 67 64 58 58 70 82 86 85
40 33 34 35 34 24 14 11 12 19 46 70 98 89 82 69 62 67 90 94 93 100 98 99 99 100 100 100 97 94 91 90 86 83 84 85 87 82 68 53 54 66 77 90
42 44 38 28 16 11 11 19 19 25 78 97 100 97 88 71 49 62 82 95 97 88 98 99 99 99 97 93 84 80 84 86 90 96 94 90 88 91 88 80 48 53 71 87
51 36 15 10 13 14 22 72 89 95 96 98 94 90 76 34 58 79 87 89 76 84 93 98 98 95 95 88 85 85 95 100 100 100 100 97 95 94 91 86 80 59 70 86
23 14 12 10 16 20 50 88 96 96 100 95 66 23 38 56 74 70 91 88 92 97 97 96 95 94 92 88 87 91 97 98 99 98 97 96 95 94 98 95 81 69 77 80
15 13 14 14 15 24 65 68 52 32 22 19 49 73 72 75 81 89 98 99 98 96 96 95 96 98 93 91 88 89 94 95 94 95 96 95 95 95 96 100 84 81 86 93
16 14 15 15 16 19 20 19 21 20 24 43 80 86 81 87 94 99 98 97 97 97 96 97 96 96 94 95 93 91 96 96 96 97 96 97 96 96 96 96 96 95 96 95
17 19 19 20 21 21 22 22 26 37 63 90 93 86 80 93 100 99 94 96 96 96 97 97 94 93 95 96 95 95 95 96 96 98 96 96 95 95 96 97 97 96 96 96

GFSNW_700_rhum_216.txt.gz
RH
84 92 84 75 61 48 33 27 22 33 34 36 31 23 24 21 17 16 16 18 18 20 24 30 35 34 45 52 56 57 50 56 78 39 46 54 62 67 61 76 65 74 86 71
91 89 90 83 80 49 38 23 30 33 37 34 28 25 23 24 21 19 18 17 21 25 29 35 37 43 49 62 58 61 62 58 66 41 55 58 66 72 72 73 71 74 78 61
98 89 89 85 83 79 45 32 35 40 40 37 36 31 28 22 21 21 23 24 24 24 25 33 31 39 54 51 60 61 74 84 77 67 58 64 71 63 64 80 89 80 80 72
99 94 92 92 89 86 74 37 37 38 36 36 38 37 29 24 20 24 25 28 30 35 35 34 36 29 33 48 72 86 99 98 91 89 91 90 84 85 78 86 81 98 82 71
99 97 95 98 96 84 82 47 34 43 41 36 40 41 33 26 25 27 29 29 28 32 31 40 31 25 24 27 26 32 65 90 100 99 93 79 77 55 63 59 61 72 64 65
100 98 100 99 99 94 86 57 38 34 34 33 40 39 34 26 23 28 27 22 18 18 20 22 26 26 24 24 27 30 46 63 89 92 86 84 46 60 51 64 71 74 75 73
100 99 100 100 100 100 92 76 54 43 31 30 39 40 35 25 20 19 18 17 19 30 29 26 25 21 19 19 19 33 42 48 83 92 76 90 44 52 71 76 74 76 78 73
100 100 100 100 100 99 100 81 62 47 31 33 41 43 36 35 33 25 24 26 28 27 26 27 22 22 28 41 41 52 54 53 73 79 99 62 55 78 82 92 84 87 89 87
100 98 100 100 100 100 100 98 95 42 25 37 44 51 42 34 25 21 22 27 27 26 27 30 37 30 31 44 51 49 62 70 72 99 98 90 65 77 64 63 92 96 96 93
100 100 100 100 100 99 100 98 97 75 31 43 47 46 34 30 28 28 26 24 25 26 35 47 52 51 57 60 69 83 84 90 81 84 96 81 72 68 62 83 91 93 96 96
100 100 100 100 100 100 100 98 97 71 62 71 76 53 34 25 23 19 21 20 28 38 47 46 61 86 79 84 82 82 90 95 95 96 97 91 77 89 96 96 98 96 96 96
100 100 100 99 100 100 98 98 95 94 85 87 56 40 27 19 14 14 12 15 18 28 29 41 47 53 68 82 68 47 52 75 87 86 86 92 85 75 91 92 87 92 95 88
100 99 99 99 98 98 98 96 96 96 95 92 63 37 25 18 15 15 15 16 16 19 24 44 56 37 38 64 65 42 32 25 26 31 26 39 28 27 30 63 77 75 64 71
100 99 98 98 98 98 96 96 95 95 94 86 45 27 22 19 15 16 14 12 11 11 12 24 32 23 40 68 55 25 25 39 59 48 57 56 45 55 64 60 55 53 49 49
99 99 98 96 98 97 97 95 90 94 68 33 17 18 16 16 16 10 7 8 9 9 12 21 17 16 27 40 28 30 56 75 81 69 66 85 66 71 80 75 77 74 70 55
100 97 98 97 97 97 99 89 91 83 30 16 16 20 17 13 12 16 18 15 15 16 22 24 24 24 45 49 49 66 77 86 93 87 77 75 78 71 75 73 76 76 79 84
99 98 97 97 96 94 90 69 51 33 20 18 16 11 16 16 30 19 15 20 34 46 53 56 72 85 91 89 80 75 78 75 81 95 88 60 72 60 60 62 60 57 56 57
97 95 96 97 96 84 79 69 37 18 18 18 12 12 19 23 22 24 38 44 54 57 72 69 76 90 97 92 74 79 86 83 83 86 84 79 71 71 68 68 64 56 53 49
96 96 95 95 92 94 74 39 22 19 21 16 10 11 13 32 52 54 50 48 62 68 75 88 86 96 97 89 92 87 85 88 84 77 69 65 67 72 80 79 80 72 76 77
96 96 96 96 83 54 39 36 31 23 20 16 13 13 14 32 50 52 48 58 79 98 83 100 99 100 96 96 94 91 96 90 86 77 69 71 70 76 79 80 81 79 76 75
97 96 93 82 81 58 34 26 15 12 27 27 40 56 57 50 52 46 46 54 65 86 97 100 100 100 99 98 98 96 92 93 91 83 84 88 91 90 84 80 79 81 81 78
95 95 95 80 56 32 22 12 11 16 38 57 73 67 63 61 52 37 40 46 69 84 99 100 100 99 97 94 93 90 92 93 85 79 83 89 93 96 94 94 90 90 88 81
94 74 72 80 55 18 10 12 18 30 42 55 66 70 63 44 22 25 36 60 84 94 100 100 100 97 93 92 86 91 92 90 83 78 84 93 95 97 96 93 98 98 93 92
94 89 37 14 12 13 14 21 38 51 63 74 78 65 19 14 35 53 58 76 86 100 99 96 96 94 91 87 91 90 84 83 82 79 84 91 92 94 95 96 95 95 96 97
48 21 12 11 11 14 19 31 59 75 72 36 13 13 16 39 68 68 76 96 100 97 95 95 94 90 91 96 93 89 87 87 86 83 87 92 94 95 95 96 96 96 96 96
17 12 12 12 12 17 35 50 33 19 15 14 15 22 49 77 78 90 90 100 92 92 94 94 90 89 88 92 90 90 91 92 93 90 89 94 96 94 95 97 96 96 96 96
15 15 15 14 16 17 17 17 18 17 18 23 34 47 75 83 93 93 99 95 87 95 97 96 95 92 83 88 90 92 94 94 95 96 94 97 97 97 96 96 96 96 96 97

GFSNW_700_rhum_219.txt.gz
RH
99 98 90 83 82 72 63 56 43 45 42 42 35 29 29 28 22 21 21 21 19 21 23 24 29 34 43 45 47 57 54 58 68 42 44 54 65 69 80 82 76 78 88 75
90 97 95 90 87 79 74 65 56 45 46 38 39 41 37 34 29 23 23 21 21 26 29 35 36 39 38 48 59 65 66 59 66 44 50 57 69 78 80 81 86 88 89 68
96 98 97 92 88 89 82 75 55 47 47 38 38 40 41 34 31 27 25 26 26 31 30 34 35 33 42 47 58 63 76 87 79 66 65 78 86 76 65 76 100 90 91 84
100 96 100 99 91 95 98 86 61 48 44 46 44 39 45 42 29 27 26 31 33 36 36 33 36 33 33 30 41 52 84 98 95 98 98 85 76 72 75 77 69 89 46 66
94 99 97 100 95 97 95 100 88 64 58 54 45 38 42 44 36 31 30 31 31 35 33 38 28 23 25 29 28 31 48 69 92 94 66 58 68 45 53 60 63 71 75 80
100 96 99 99 98 100 98 99 100 86 62 58 56 36 43 44 40 33 28 25 22 21 21 23 28 30 26 28 32 31 35 40 58 66 74 65 45 62 61 76 92 96 96 98
99 98 100 100 100 99 98 100 99 100 81 69 56 32 40 44 44 36 33 32 30 33 32 28 29 25 22 23 23 29 33 44 71 75 58 84 48 64 91 99 97 97 96 95
99 93 100 100 100 100 99 100 100 99 99 84 60 35 36 46 52 47 40 31 28 26 27 27 24 24 28 40 45 49 57 56 61 63 97 58 63 86 86 92 92 100 96 91
100 99 100 99 100 100 100 100 99 100 99 91 64 40 55 53 51 38 30 29 31 29 25 26 35 31 32 42 51 50 57 71 67 92 96 88 68 85 81 77 94 97 97 95
100 100 99 100 100 100 100 100 100 99 100 98 94 82 81 89 84 42 33 28 25 25 27 37 46 45 45 47 60 75 83 86 78 88 97 77 71 60 66 93 90 91 96 95
100 100 100 100 100 100 100 99 99 100 98 98 97 90 87 86 52 37 32 28 28 27 34 36 37 58 63 69 71 72 83 94 97 98 97 91 83 95 74 67 66 62 70 67
95 96 99 100 100 100 100 99 99 99 99 97 97 90 90 85 80 48 28 18 17 18 24 24 31 39 54 50 49 48 48 47 75 89 81 95 78 43 47 46 44 40 45 47
49 72 90 98 100 100 100 98 98 98 98 98 97 91 89 79 34 25 20 17 16 17 18 19 24 28 40 39 30 24 31 28 27 27 21 32 45 54 74 87 82 80 83 81
22 27 53 77 88 100 99 98 98 99 96 96 94 90 86 59 24 20 21 16 15 15 14 13 13 18 38 37 30 23 27 35 46 52 60 57 51 60 72 73 73 75 77 80
27 60 97 83 100 100 94 97 98 97 96 95 72 49 28 21 20 17 17 11 8 9 9 10 19 24 29 30 30 24 38 48 71 71 78 81 61 69 71 62 61 61 60 55
47 98 100 100 97 97 97 96 97 96 95 95 68 44 32 24 22 17 14 14 13 13 15 16 20 20 36 50 43 46 62 79 90 88 78 80 73 67 68 62 61 57 56 55
100 98 99 100 99 98 98 96 92 95 93 50 19 18 19 18 18 20 24 14 16 29 46 43 51 71 87 89 76 75 82 85 94 96 92 73 71 60 59 60 60 61 62 64
100 99 97 97 97 97 94 94 81 74 51 40 27 18 25 26 26 22 20 27 46 56 69 64 73 93 99 89 72 77 82 77 84 93 90 85 72 64 62 68 73 73 76 76
99 97 96 96 96 97 95 94 95 86 64 26 15 13 14 26 25 34 50 53 52 59 71 81 86 95 91 87 85 84 82 83 82 77 78 76 68 63 72 82 87 86 84 81
96 96 96 97 96 96 95 78 53 31 29 25 21 16 13 21 39 53 45 50 62 84 81 97 98 100 94 91 90 90 94 91 83 77 71 68 62 66 74 82 85 88 86 84
95 96 96 95 95 95 73 81 46 24 14 17 22 19 19 28 49 47 42 50 62 73 92 100 100 100 92 95 97 98 91 84 86 88 85 80 84 91 86 83 85 88 93 93
96 95 96 96 96 91 83 43 21 13 22 39 36 39 46 55 52 40 38 38 51 82 100 99 100 96 98 98 96 91 83 83 84 86 81 81 88 90 92 94 94 98 98 91
96 96 96 91 92 81 63 11 10 12 25 47 60 67 63 48 17 19 21 32 68 90 100 100 99 99 95 92 88 87 84 84 86 87 83 88 92 95 97 95 98 100 97 96
94 93 94 86 67 43 14 9 12 22 47 62 64 65 23 13 14 26 48 61 76 99 100 97 95 94 92 84 78 77 84 84 83 85 83 87 91 95 98 97 97 97 96 93
94 90 70 70 14 12 15 34 53 63 69 71 42 13 12 18 45 55 65 75 98 100 98 96 95 92 85 80 76 78 86 84 84 86 85 86 91 95 98 96 96 96 96 96
55 24 12 12 12 17 32 54 68 56 29 13 13 14 20 40 63 76 78 95 91 93 98 95 94 95 92 82 73 75 87 87 88 92 91 90 91 92 96 97 98 96 96 96
37 36 14 12 14 21 23 19 16 16 16 17 19 20 47 68 82 87 92 91 87 93 97 100 99 96 80 71 74 90 92 91 96 97 94 96 96 98 99 94 95 96 96 97

GFSNW_700_rhum_222.txt.gz
RH
96 90 89 83 94 85 79 70 63 54 48 47 38 42 42 42 34 33 28 27 24 24 29 30 32 35 39 44 53 59 52 58 61 37 44 46 60 71 76 82 83 94 96 74
100 93 87 94 93 92 80 72 66 55 51 46 41 44 45 42 37 34 29 26 26 28 28 34 37 38 36 37 40 58 58 61 67 43 58 58 73 80 84 84 94 96 94 67
82 90 94 98 95 98 89 80 72 63 53 47 51 52 44 46 46 43 35 30 29 30 31 34 34 32 38 38 42 47 67 80 71 57 55 73 82 68 70 80 100 89 92 79
97 100 100 99 96 99 98 85 88 92 68 62 57 54 51 42 45 45 42 38 35 34 34 34 30 31 33 32 28 30 42 74 79 85 76 65 51 44 50 71 66 96 60 74
98 99 92 92 97 97 99 99 100 90 93 90 72 63 49 45 46 53 48 40 33 29 28 26 24 23 25 31 32 33 41 56 75 63 33 36 43 42 59 62 64 68 87 96
100 100 100 90 98 95 95 99 99 97 99 97 97 78 65 51 47 49 47 45 42 39 35 33 33 32 30 32 36 32 36 38 48 49 51 49 46 61 72 81 81 92 95 88
100 100 100 100 100 98 100 100 99 95 98 97 98 98 97 71 50 47 53 52 47 42 37 31 30 28 26 26 28 30 28 35 53 54 49 70 56 66 92 95 94 99 97 96
100 100 100 100 100 100 98 100 99 100 98 99 99 100 99 91 60 51 58 57 43 33 30 32 26 26 30 39 49 53 54 58 57 61 78 45 60 88 96 96 94 93 100 99
100 99 100 100 99 100 100 100 100 100 100 98 99 100 99 98 75 92 85 81 52 38 32 27 30 30 34 42 47 48 57 73 68 86 93 85 74 94 96 95 94 100 98 94
98 99 100 100 100 100 100 100 100 99 99 99 99 99 99 98 97 90 96 93 78 42 35 32 36 39 36 42 48 56 73 84 82 82 99 75 76 57 64 85 86 96 79 58
92 99 99 100 100 100 100 99 99 99 99 99 99 98 98 97 97 96 86 82 65 41 34 36 33 39 45 51 56 63 74 82 92 96 99 91 75 88 88 66 56 46 37 37
100 93 91 96 95 92 100 100 94 91 98 98 99 100 98 97 96 95 94 95 82 23 22 27 33 31 40 41 39 36 58 66 60 79 86 89 90 89 47 47 66 78 76 76
69 83 74 86 86 94 98 100 100 100 98 98 95 100 97 92 95 96 95 77 21 17 18 21 24 22 27 32 31 26 26 33 48 37 18 21 36 60 66 81 79 74 75 73
31 36 28 27 29 33 42 87 98 100 99 99 91 98 97 92 94 95 89 22 18 18 17 20 21 16 20 27 28 20 16 23 25 30 50 65 62 72 81 73 68 64 58 52
17 21 22 25 28 41 60 91 99 100 99 97 98 87 87 90 84 41 26 23 18 14 16 16 15 14 21 35 26 18 25 28 44 65 81 86 67 74 73 63 61 58 49 39
26 24 21 22 41 99 100 100 98 100 100 97 97 95 93 89 69 37 19 20 16 15 15 14 17 20 29 34 42 50 64 74 84 80 84 79 81 76 75 65 61 56 55 58
28 24 37 70 98 100 100 97 94 94 100 97 94 81 70 69 28 24 25 24 20 17 23 30 39 46 54 65 65 74 78 80 92 93 88 78 75 67 66 63 58 63 72 78
30 40 98 100 100 96 97 98 95 96 95 96 82 39 42 35 28 36 33 29 29 41 59 62 69 77 80 82 76 78 81 79 85 94 92 82 77 78 66 60 69 75 80 82
39 66 99 100 100 100 96 96 96 92 80 76 69 55 22 44 39 34 32 38 56 58 67 71 71 88 81 82 81 84 82 84 78 73 71 72 73 67 64 72 83 86 85 84
72 100 100 97 96 98 96 97 95 94 86 79 76 37 17 25 35 38 46 52 59 78 77 83 94 97 84 88 85 83 87 91 79 68 63 62 65 66 67 80 88 87 90 91
94 100 98 99 97 98 97 93 92 73 50 53 45 34 23 33 39 42 42 47 56 69 90 92 100 97 88 88 90 92 96 84 77 76 79 82 82 78 80 84 88 92 95 94
98 97 98 96 96 94 93 94 73 56 24 30 26 30 31 33 36 50 44 44 41 73 99 99 100 92 96 98 99 96 85 76 78 78 79 84 85 84 89 92 92 98 98 99
97 96 96 94 94 92 92 55 17 14 19 38 35 49 58 58 49 30 22 25 46 76 99 99 100 98 100 99 96 81 72 71 76 81 85 87 85 91 93 93 98 99 99 97
96 94 94 94 94 95 76 16 12 22 39 57 74 75 60 28 12 10 30 47 68 96 99 96 98 100 100 94 84 76 70 65 73 82 84 87 84 90 93 96 98 96 95 94
94 94 94 93 66 21 26 67 42 36 56 77 72 55 14 10 14 32 50 63 79 94 99 99 100 100 96 92 86 73 57 60 81 84 84 88 87 91 90 93 96 98 98 97
89 65 66 52 53 50 31 54 64 69 73 69 27 11 12 15 24 57 65 81 87 97 100 97 99 96 95 91 72 60 68 84 89 86 89 88 92 92 89 92 97 97 97 98
57 50 42 32 28 44 50 63 70 44 18 14 15 14 21 46 61 76 83 85 83 96 100 99 99 98 89 76 73 82 93 96 94 94 92 86 85 94 97 98 97 95 97 99

GFSNW_700_rhum_225.txt.gz
RH
84 81 81 95 86 83 82 78 69 61 57 52 44 43 46 47 43 41 39 38 30 29 31 30 31 33 34 36 38 41 42 55 52 42 40 44 59 68 72 79 86 95 97 72
77 77 94 93 88 96 86 80 75 69 61 48 50 55 53 45 46 47 46 40 33 35 31 35 36 34 36 35 37 56 54 58 58 42 56 57 72 77 81 86 92 95 85 66
84 93 89 90 99 100 92 88 84 78 70 61 69 62 55 56 49 48 48 50 44 38 36 36 35 34 38 36 40 45 48 56 47 46 42 56 64 65 72 83 100 86 87 76
88 99 88 98 87 95 97 89 96 94 90 85 87 84 75 66 57 55 54 54 47 40 37 34 33 34 32 35 31 30 35 49 52 55 50 60 52 51 56 70 62 91 68 76
98 99 100 91 100 92 100 93 100 90 98 99 99 93 93 88 90 81 61 50 50 53 45 39 38 36 35 36 36 36 42 50 54 40 29 32 33 29 38 48 62 71 66 69
99 100 99 100 100 100 97 100 94 100 98 97 93 95 98 98 98 90 76 48 47 58 52 44 40 36 33 33 35 35 40 40 41 40 34 38 38 46 62 76 80 81 93 97
98 96 100 100 100 100 100 100 100 100 98 100 94 96 99 100 98 98 92 54 47 63 73 52 39 34 32 29 29 30 32 36 44 46 44 66 56 68 79 94 100 99 98 100
100 98 100 100 100 100 100 100 100 100 99 100 100 100 100 100 99 99 97 86 85 89 74 50 53 33 32 37 44 47 52 53 56 56 67 43 53 82 97 99 100 92 93 98
99 100 100 100 100 99 100 100 100 99 99 98 100 100 99 99 99 99 100 99 96 95 87 92 43 30 31 38 45 46 64 75 66 77 77 74 66 84 99 98 99 100 98 94
97 100 98 100 99 99 100 100 100 99 99 98 99 98 96 97 98 98 97 97 97 94 93 92 82 44 34 39 45 53 68 84 81 81 94 68 73 67 77 95 75 81 73 57
80 89 100 100 99 100 100 100 99 99 99 99 96 97 95 96 90 96 99 98 96 93 85 54 40 49 44 42 47 53 60 63 80 93 99 87 65 83 86 72 74 60 45 46
14 30 63 99 100 100 100 100 99 99 99 98 98 99 81 88 84 94 96 96 95 96 86 69 32 35 39 40 41 37 54 59 72 66 65 63 66 70 47 50 68 70 72 72
11 22 46 89 90 91 93 90 93 98 99 95 73 84 92 94 97 95 96 95 95 95 95 60 29 29 28 31 27 28 34 38 50 36 33 29 25 38 68 78 79 80 76 66
10 21 34 38 54 65 58 42 66 72 91 79 78 94 98 100 100 100 100 99 95 91 68 24 24 27 25 27 22 22 24 30 24 22 24 40 63 77 82 71 68 61 56 56
14 15 20 24 22 24 27 29 28 49 86 96 94 95 96 93 94 96 98 84 56 27 21 21 24 24 24 21 22 20 21 26 36 47 67 78 72 69 69 59 55 51 51 52
17 16 17 26 26 24 23 25 54 80 94 100 96 92 97 100 96 92 52 29 27 24 22 20 20 17 21 24 27 27 44 64 78 80 86 79 80 70 67 61 61 61 60 59
24 20 17 29 33 28 37 61 78 92 95 99 98 94 88 87 77 60 45 33 30 32 22 19 18 26 37 45 40 46 68 85 94 94 92 77 67 58 60 64 64 62 68 78
19 23 20 32 33 39 82 91 88 97 100 96 93 83 78 65 45 36 39 34 34 33 34 34 46 67 73 69 65 81 86 92 92 96 89 74 66 66 70 69 63 66 75 80
15 20 40 50 66 99 93 96 98 96 100 95 88 71 58 65 57 48 42 39 36 39 46 68 68 80 69 74 84 86 94 87 81 82 69 61 63 65 71 70 69 73 77 81
30 80 79 100 100 100 100 100 98 96 86 88 85 71 51 58 41 45 39 40 52 74 72 77 95 96 80 83 85 95 90 88 82 66 54 52 56 64 73 73 75 80 82 82
98 97 100 99 100 100 98 96 96 91 87 79 77 78 67 57 52 41 51 46 53 70 81 84 100 89 83 90 93 91 89 86 69 62 61 68 73 80 80 80 78 82 84 85
93 100 100 99 100 97 94 94 89 85 68 55 41 44 50 44 64 65 49 45 45 72 91 96 100 86 94 99 98 95 89 74 67 61 62 75 85 89 86 83 80 83 85 86
100 100 97 95 93 95 93 86 72 54 43 34 32 36 40 48 49 49 43 35 44 66 100 100 100 98 100 100 100 92 84 71 58 54 68 84 92 95 89 81 84 90 90 89
98 96 95 94 91 93 90 73 42 25 27 45 34 52 59 54 54 30 16 30 48 89 100 99 97 100 100 100 98 91 78 63 50 56 82 91 95 94 89 82 84 87 91 94
95 94 94 95 90 77 54 26 17 40 70 76 76 73 61 31 11 19 27 57 75 86 98 97 100 100 100 98 93 79 61 55 68 88 93 96 93 92 89 84 85 92 96 96
94 93 90 76 54 53 74 90 83 61 71 81 77 34 14 11 13 33 55 70 80 95 96 100 100 100 100 96 83 60 56 76 90 94 96 89 78 69 85 88 90 92 94 94
87 77 84 90 76 52 54 67 76 82 84 74 19 13 14 27 37 60 72 81 84 92 100 100 100 98 88 68 54 56 70 86 94 97 100 78 44 40 36 80 94 93 96 95